Tracking 27422 objects as of 30-May-2023
HD Live streaming from Space Station
objects crossing your sky now

STARLINK-5149

Track STARLINK-5149 now!
10-day predictions
STARLINK-5149 is classified as:


NORAD ID: 53981
Int'l Code: 2022-125T
Perigee: 546.1 km
Apogee: 547.7 km
Inclination: 53.2 °
Period: 95.4 minutes
Semi major axis: 6917 km
RCS: Unknown
Launch date: October 5, 2022
Source: United States (US)
Launch site: AIR FORCE WESTERN TEST RANGE (AFWTR)
Your satellite tracking list
Your tracking list is empty




NASA's NSSDC Master Catalog

Two Line Element Set (TLE):
1 53981U 22125T   23150.07270344 -.00000642  00000-0 -22238-4 0  9991
2 53981  53.2172  78.6885 0001180  93.6684 266.4443 15.08838350 36432
Source of the keplerian elements: AFSPC